Location: Bletchingley
(51.2333°N, 0.1000°W)
Time: 13:23:19
(UTC+00:00)

SL-14 R/B - Visible Passes

Search period start: 16 January 2021 00:00
Search period end: 26 January 2021 00:00
Orbit: 518 x 554 km, 82.4° (Epoch: 15 January)

Date Brightness Start Highest point End Pass type
(mag) Time Alt. Az. Time Alt. Az. Time Alt. Az.
16 Jan 5.8 05:21:08 11° S 05:21:08 11° S 05:21:21 10° S visible
16 Jan 3.7 17:36:40 10° SSE 17:40:17 40° E 17:43:57 10° NNE visible
16 Jan 5.7 19:13:38 10° WSW 19:16:37 21° WNW 19:19:39 10° NNW visible
17 Jan 3.7 17:28:02 10° SSE 17:31:38 39° E 17:35:18 10° NNE visible
17 Jan 5.7 19:04:56 10° WSW 19:07:58 21° WNW 19:11:01 10° NNW visible
18 Jan 3.7 17:19:24 10° SSE 17:22:59 38° E 17:26:39 10° NNE visible
18 Jan 5.7 18:56:16 10° WSW 18:59:19 22° WNW 19:02:24 10° NNW visible
19 Jan 3.8 17:10:46 10° SSE 17:14:21 38° E 17:18:00 10° NNE visible
19 Jan 5.7 18:47:35 10° WSW 18:50:40 22° WNW 18:53:47 10° NNW visible
20 Jan 3.8 17:02:08 10° SSE 17:05:42 37° E 17:09:21 10° NNE visible
20 Jan 5.7 18:38:54 10° WSW 18:42:00 22° WNW 18:45:09 10° NNW visible
21 Jan 5.7 18:30:13 10° WSW 18:33:21 23° WNW 18:36:32 10° NNW visible
22 Jan 5.6 18:21:33 10° WSW 18:24:42 23° WNW 18:27:54 10° NNW visible
23 Jan 5.6 18:12:52 10° WSW 18:16:03 24° WNW 18:19:17 10° NNW visible
24 Jan 5.6 18:04:11 10° SW 18:07:24 24° WNW 18:10:39 10° NNW visible
25 Jan 5.6 17:55:30 10° SW 17:58:45 24° WNW 18:02:02 10° NNW visible
